Flag for Norway Weather past 2 weeks in Nøtterøy, Norway

Now
41 °F

Passing clouds.


Feels Like: 35 °F
Forecast: 31 / 40 °F
Wind: 9 mph from Southwest

Location: Torp

Current Time: Mar 3, 2015 at 5:45:18 PM

Latest Report: Mar 3, 2015 at 4:50 PM


Visibility: N/A

Pressure: 29.53 "Hg

Humidity: 66%

Dew point: 30 °F

Location of NøtterøyLocation

Historic Weather in Nøtterøy — Graph

°F

Nøtterøy temperature yesterday

Maximum temperature yesterday: 41 °F (at 11:50 AM)
Minimum temperature yesterday: 36 °F (at 11:20 PM)
Average temperature yesterday: 38 °F

Past Weeks' High & Low Weather Summary

 TemperatureHumidityPressure
High43 °F (Feb 18, 2:20 AM)100% (Feb 16, 11:50 PM)30.27 "Hg (Feb 16, 11:50 PM)
Low27 °F (Mar 3, 6:20 AM)42% (Feb 22, 2:20 PM)28.97 "Hg (Feb 23, 11:50 AM)
Average37 °F89%29.56 "Hg
* Reported Feb 16 4:20 PM — Mar 3 4:20 PM, Nøtterøy, Weather by CustomWeather, © 2015

Note: Actual official high and low records may vary slightly from our data, if they occured in-between our weather recording intervals... More about our weather records

Advertising

Nøtterøy weather history for previous 24 hours

 ConditionsComfort  
Time TempWeatherWind HumidityBarometerVisibility
4:20 PM
Tue, Mar 3
43 °FPassing clouds.9 mph61%29.53 "HgN/A
3:50 PM43 °FScattered clouds.10 mph57%29.53 "HgN/A
3:20 PM43 °FScattered clouds.5 mph46%29.53 "HgN/A
2:50 PM43 °FScattered clouds.8 mph49%29.53 "HgN/A
2:20 PM43 °FPassing clouds.9 mph53%29.53 "HgN/A
1:50 PM43 °FPassing clouds.12 mph57%29.53 "HgN/A
1:20 PM43 °FPassing clouds.9 mph57%29.50 "HgN/A
12:50 PM41 °FPassing clouds.9 mph66%29.50 "HgN/A
12:20 PM41 °FSunny.9 mph61%29.50 "Hg10 mi
11:50 AM39 °FPassing clouds.8 mph70%29.50 "HgN/A
11:20 AM37 °FPassing clouds.5 mph75%29.50 "HgN/A
10:50 AM37 °FPassing clouds.3 mph75%29.50 "HgN/A
10:20 AM36 °FSunny.2 mph81%29.47 "Hg10 mi
9:50 AM32 °FSunny.3 mph93%29.47 "Hg10 mi
9:20 AM30 °FPassing clouds.3 mph93%29.47 "HgN/A
8:50 AM30 °FPassing clouds.5 mph93%29.45 "HgN/A
8:20 AM28 °FPassing clouds.2 mph100%29.45 "HgN/A
7:50 AM28 °FPassing clouds.2 mph93%29.45 "HgN/A
7:20 AM28 °FSunny.1 mph93%29.42 "Hg10 mi
6:50 AM28 °FClear.1 mph100%29.42 "Hg10 mi
6:20 AM27 °FClear.No wind100%29.42 "Hg10 mi
5:50 AM28 °FClear.2 mph100%29.42 "Hg10 mi
5:20 AM28 °FChilly.2 mph100%29.42 "HgN/A
4:50 AM28 °FChilly.3 mph100%29.39 "Hg2 mi
4:20 AM28 °FLight fog.1 mph100%29.39 "Hg3 mi
3:50 AM28 °FChilly.2 mph100%29.39 "Hg1 mi
3:20 AM28 °FIce fog.7 mph100%29.39 "Hg1 mi
2:50 AM28 °FIce fog.No wind100%29.39 "Hg0 mi
2:20 AM30 °FIce fog.1 mph100%29.39 "Hg0 mi
1:50 AM30 °FChilly.3 mph100%29.36 "Hg1 mi
1:20 AM32 °FChilly.2 mph100%29.36 "Hg1 mi
12:50 AM34 °FFog.1 mph93%29.36 "Hg1 mi
12:20 AM34 °FFog.5 mph100%29.36 "Hg0 mi
11:50 PM
Mon, Mar 2
36 °FFog.3 mph100%29.33 "Hg1 mi
11:20 PM36 °FLow clouds.5 mph100%29.33 "Hg4 mi
10:50 PM37 °FFog.2 mph93%29.33 "Hg2 mi
10:20 PM37 °FFog.3 mph93%29.30 "Hg3 mi
9:50 PM37 °FMostly cloudy.5 mph100%29.30 "Hg4 mi
9:20 PM37 °FPassing clouds.5 mph93%29.30 "HgN/A
8:50 PM37 °FLow clouds.5 mph100%29.30 "HgN/A
8:20 PM37 °FLow clouds.6 mph100%29.27 "HgN/A
7:50 PM37 °FLow clouds.6 mph100%29.27 "HgN/A
7:20 PM37 °FPassing clouds.6 mph100%29.27 "HgN/A
6:50 PM37 °FPassing clouds.7 mph100%29.24 "HgN/A
6:20 PM37 °FPartly cloudy.9 mph93%29.24 "HgN/A
5:50 PM37 °FPartly cloudy.10 mph100%29.24 "HgN/A
5:20 PM37 °FPartly sunny.9 mph100%29.21 "HgN/A
Weather by CustomWeather, © 2015

See weather overviewHow to use our weather pages